Location: Madrid
(40.4167°N, 3.7036°W)
Time: 12:24:42
(UTC+00:00)

ISS - Pass Details

Date: 07 May 2025
Orbit: 416 x 419 km, 51.6° (Epoch: 14 May)

Event Time Altitude Azimuth Distance (km) Brightness Sun altitude
Rises 04:59:38 0° 300° (WNW) 2,359 -0.3 -2.1°
Reaches altitude 10° 05:01:50 10° 291° (WNW) 1,493 -1.4 -1.7°
Maximum altitude 05:04:56 35° 224° (SW) 685 -3.1 -1.1°
Drops below altitude 10° 05:08:01 10° 156° (SSE) 1,485 -0.9 -0.6°
Sets 05:10:11 0° 147° (SSE) 2,345 0.2 -0.2°
